VENTA 1 (42791 NORAD) Tracking and Keplerian Element Data

This shows tracking and keplerian element data for the satellite.

Feedback or suggestion? Click here.




ElementValue
Catalog42791
NameVENTA 1
Epoch Orbit30050
Epoch Day321.6818159
Epoch Year2022
RAAN359.9307
Inclination97.1824
Eccentricity0.0009863
Argument of Perigee128.7151
Mean Anonmoly231.4975
Mean Motion15.33064023
Decay Rate0.00011983
L11 42791U 17036AC 22321.68181590 .00011983 00000-0 37681-3 0 9998
L22 42791 97.1824 359.9307 0009863 128.7151 231.4975 15.33064023300509



Live tracking and technical data element details for VENTA 1 (NORAD 42791). VENTA 1 can be tracked NOW for your location showing map with azimuth and elevation plus other details from your city location.







IsCatalogInMostPopularTable: catalog: 42791, numindb: 488
Update: records affected: 1



GetName: 42791 VENTA 1

Hit Count: updated at: Mon, 28 Nov 2022 04:59:02 GMT